User: anonymous   Login
Location: Le Petit-Vavre
(46.5081°N, 1.5239°E)
Time: 13:27:24
(UTC+00:00)
Language:

SeaSat 1 - Orbit

View from above orbital plane
View from above orbital plane
View from above satellite
View from above satellite

Ground track
Ground track

The orbit data is extracted from the following two-line orbital elements,

1 10967U 78064A   21126.67351675 -.00000063  00000-0  21707-4 0  9991
2 10967 107.9976  26.3713 0002487 261.2112  98.8751 14.43875301251161
Epoch (UTC): 06 May 2021 16:09:51
Eccentricity: 0.0002487
inclination: 107.9976°
perigee height: 744 km
apogee height: 747 km
right ascension of ascending node: 26.3713°
argument of perigee: 261.2112°
revolutions per day: 14.43875301
mean anomaly at epoch: 98.8751°
orbit number at epoch: 25116

The dashed part of the orbit path shows where the satellite is in the earth's shadow,  

DLR